Weather History for Los Alamitos, CA

Change the Weather History Date:

Monday, November 28, 2011

  Actual Average Record
Temperature  
Mean Temperature 62 °F -  
Max Temperature 74 °F 68 °F 80 °F (2003)
Min Temperature 50 °F 51 °F 42 °F (2001)
Degree Days  
Heating Degree Days 3    
Growing Degree Days 12 (Base 50)    
Moisture  
Dew Point 43 °F    
Average Humidity 60    
Maximum Humidity 100    
Minimum Humidity 27    
Precipitation  
Precipitation 0.00 in - - ()
Sea Level Pressure  
Sea Level Pressure 30.10 in    
Wind  
Wind Speed 3 mph (West)    
Max Wind Speed 6 mph    
Max Gust Speed -    
Visibility 10 miles    
Events      
Averages and records for this station are not official NWS values.
T = Trace of Precipitation, MM = Missing Value Source: NWS Daily Summary

Daily Weather History Graph

Daily Weather History Graph

Search for Another Location

Airport:

Trip Planner

Search our weather history database for the weather conditions in past years. The results will help you decide how hot, cold, wet, or windy it might be!

Date:

Astronomy

Nov. 28, 2011 Rise Set
Actual Time 6:36 AM PST 4:43 PM PST
Civil Twilight 6:09 AM PST 5:11 PM PST
Nautical Twilight 5:38 AM PST 5:41 PM PST
Astronomical Twilight 5:08 AM PST 6:11 PM PST
Moon 9:50 AM PST (11/28) 8:33 PM PST (11/28)
Length of Visible Light 11h 02m
Length of Day
10h 07m
Waxing Crescent, 16% of the Moon is Illuminated
Nov 28
Waxing Crescent
Dec 2
First Quarter
Dec 10
Full
Dec 17
Last Quarter
Dec 24
New

Hourly Weather History & Observations

Time (PST) Temp. Dew Point Humidity Pressure Visibility Wind Dir Wind Speed Gust Speed Precip Events Conditions
12:55 AM 57.2 °F 32.7 °F 40% 30.13 in 10.0 mi NE 3.5 mph - N/A   Clear
1:55 AM 54.3 °F 33.8 °F 46% 30.14 in 10.0 mi North 4.6 mph - N/A   Clear
2:55 AM 52.2 °F 35.4 °F 53% 30.13 in 10.0 mi Calm Calm - N/A   Clear
3:55 AM 50.2 °F 37.0 °F 61% 30.13 in 10.0 mi NW 4.6 mph - N/A   Clear
4:55 AM 51.1 °F 35.6 °F 55% 30.12 in 10.0 mi North 3.5 mph - N/A   Clear
5:55 AM 51.8 °F 35.1 °F 53% 30.12 in 10.0 mi NNW 3.5 mph - N/A   Clear
6:55 AM 50.0 °F 36.5 °F 60% 30.12 in 10.0 mi Calm Calm - N/A   Clear
7:55 AM 50.0 °F 37.4 °F 62% 30.13 in 10.0 mi NNE 2.3 mph - N/A   Mostly Cloudy
8:55 AM 60.4 °F 40.1 °F 47% 30.13 in 10.0 mi Calm Calm - N/A   Mostly Cloudy
9:55 AM 66.7 °F 34.7 °F 31% 30.15 in 10.0 mi Calm Calm - N/A   Mostly Cloudy
10:55 AM 71.8 °F 36.1 °F 27% 30.14 in 10.0 mi SSW 3.5 mph - N/A   Mostly Cloudy
11:55 AM 74.7 °F 40.6 °F 29% 30.10 in 10.0 mi SSW 5.8 mph - N/A   Mostly Cloudy
12:55 PM 74.7 °F 41.7 °F 31% 30.08 in 10.0 mi South 5.8 mph - N/A   Mostly Cloudy
1:55 PM 72.7 °F 41.9 °F 33% 30.07 in 10.0 mi SW 5.8 mph - N/A   Mostly Cloudy
2:55 PM 70.0 °F 41.4 °F 35% 30.07 in 10.0 mi South 5.8 mph - N/A   Mostly Cloudy
3:55 PM 67.6 °F 50.0 °F 53% 30.06 in 10.0 mi South 4.6 mph - N/A   Clear
4:55 PM 63.3 °F 52.5 °F 68% 30.06 in 10.0 mi Calm Calm - N/A   Clear
5:55 PM 59.9 °F 52.7 °F 77% 30.06 in 10.0 mi Calm Calm - N/A   Clear
6:55 PM 57.4 °F 53.4 °F 87% 30.06 in 10.0 mi Calm Calm - N/A   Clear
7:55 PM 56.5 °F 54.0 °F 91% 30.07 in 10.0 mi Calm Calm - N/A   Clear
8:55 PM 54.9 °F 54.3 °F 98% 30.08 in 10.0 mi Calm Calm - N/A   Clear
9:55 PM 53.6 °F 53.2 °F 99% 30.08 in 10.0 mi Calm Calm - N/A   Clear
10:55 PM 53.4 °F 53.1 °F 99% 30.09 in 10.0 mi Calm Calm - N/A   Clear
11:55 PM 52.0 °F 52.0 °F 100% 30.09 in 10.0 mi Calm Calm - N/A   Clear